Location: Gallinara
(44.0333°N, 8.2333°E)
Time: 15:29:27
(UTC+00:00)

Cosmos 1725 Rocket - Pass Details

Date: 25 September 2020
Orbit: 961 x 991 km, 82.9° (Epoch: 23 October)

Event Time Altitude Azimuth Distance (km) Brightness Sun altitude
Rises 04:42:44 0° 346° (NNW) 3,659 6.9 -7.2°
Reaches altitude 10° 04:45:20 10° 340° (NNW) 2,707 6.2 -6.7°
Maximum altitude 04:51:08 44° 270° (W) 1,302 4.3 -5.7°
Drops below altitude 10° 04:56:55 10° 200° (SSW) 2,690 6.1 -4.6°
Sets 04:59:30 0° 194° (SSW) 3,634 6.8 -4.2°
